Regional Weather Roundup
Issued by NWS

Home | Current Version | Previous Version | Text Only | Print | Product List | Glossary On
Versions: 1 2 3 4 5 6 7 8 9 10 11 12 13 14 15 16 17 18 19 20 21 22 23 24 25 26 27 28 29 30 31 32 33 34 35 36 37 38 39 40 41 42 43 44 45 46 47 48 49 50
000
ASUS43 KFSD 241110
RWRSD

WEATHER ROUNDUP FOR SOUTH DAKOTA
NATIONAL WEATHER SERVICE SIOUX FALLS SD
600 AM CDT SAT OCT 24 2020

NOTE: "FAIR" INDICATES FEW OR NO CLOUDS BELOW 12,000 FEET WITH NO
SIGNIFICANT WEATHER AND/OR OBSTRUCTIONS TO VISIBILITY.


SDZ001>005-009-010-012>017-241200-
NORTHWEST AND NORTH CENTRAL SOUTH DAKOTA

CITY           SKY/WX    TMP DP  RH WIND       PRES   REMARKS
FAITH            N/A     19  15  84 SE16G24   30.09F WCI   4
MOBRIDGE       CLOUDY    21  15  78 E10       30.23S WCI  10
$$

SDZ012>016-024>037-041>051-057-063-072>074-241200-
SOUTHWEST AND SOUTH CENTRAL SOUTH DAKOTA

CITY           SKY/WX    TMP DP  RH WIND       PRES   REMARKS
RAPID CTY ARPT CLOUDY    21  18  88 SE16      29.97F WCI   7
PIERRE         LGT SNOW  23  17  78 SE17      30.22S WCI   9
CUSTER         CLOUDY    19  17  92 N5        29.83F WCI  12
ELLSWORTH AFB  CLOUDY    21  18  86 S14       29.95F WCI   8
PHILIP         CLOUDY    23  18  81 E14       30.12F WCI  11
PINE RIDGE     CLOUDY    25  18  74 SE6       29.98F WCI  18
SPEARFISH      CLOUDY    21  19  93 E6        29.91F WCI  14
WINNER         MOCLDY    19  14  81 SE9       30.22S WCI   8
$$

SDZ004>011-016>023-039-040-241200-
NORTHEAST SOUTH DAKOTA

CITY           SKY/WX    TMP DP  RH WIND       PRES   REMARKS
ABERDEEN       CLOUDY    18  13  80 CALM      30.33F
WATERTOWN      CLOUDY    20  17  88 CALM      30.30R
BROOKINGS      MOCLDY    18  16  92 SE3       30.33R
SISSETON         N/A     18  14  84 CALM      30.32F
$$

SDZ017-020-022-023-036>040-048>070-241200-
SOUTHEAST SOUTH DAKOTA

CITY           SKY/WX    TMP DP  RH WIND       PRES   REMARKS
SIOUX FALLS    PTCLDY    15  11  83 NE3       30.33F
HURON          CLOUDY    23  18  81 E7        30.32S WCI  15
CHAMBERLAIN    MOCLDY    22  19  91 SE9       30.27R WCI  11
MADISON        MOCLDY    18  18 100 E6        30.31S WCI   9
MITCHELL       MOCLDY    20  16  84 SE6       30.33R WCI  12
YANKTON        PTCLDY    13  11  92 CALM      30.32F
$$

ABBREVIATIONS USED IN REMARKS
   TC - TEMPERATURE IN CELSIUS
  WCI - WIND CHILL INDEX
   HX - HEAT INDEX
  VSB - VISIBILITY




USA.gov is the U.S. government's official web portal to all federal, state and local government web resources and services.